Flag for United Kingdom Weather past 2 weeks in Newtown, Wales, United Kingdom

Now
51 °F

Cool.


Feels Like: 48 °F
Forecast: 42 / 58 °F
Wind: 8 mph from North

Location: Lake Vyrnwy

Current Time: May 24, 2015 at 9:11:59 PM

Latest Report: May 24, 2015 at 8:00 PM


Visibility: 17 mi

Pressure: 30.12 "Hg

Humidity: 67%

Dew point: 40 °F

Location of NewtownLocation

Historic Weather in Newtown — Graph

°F

Newtown temperature yesterday

Maximum temperature yesterday: 58 °F (at 7:00 PM)
Minimum temperature yesterday: 47 °F (at 6:00 AM)
Average temperature yesterday: 53 °F

Past Weeks' High & Low Weather Summary

 TemperatureHumidityPressure
High59 °F (May 24, 4:00 PM)97% (May 18, 5:00 AM)30.34 "Hg (May 18, 5:00 AM)
Low38 °F (May 20, 1:00 AM)45% (May 23, 11:00 AM)29.50 "Hg (May 18, 11:00 PM)
Average48 °F80%30.06 "Hg
* Reported May 9 8:00 PM — May 24 8:00 PM, Newtown, Weather by CustomWeather, © 2015

Note: Actual official high and low records may vary slightly from our data, if they occured in-between our weather recording intervals... More about our weather records

Advertising

Newtown weather history for previous 24 hours

 ConditionsComfort  
Time TempWeatherWind HumidityBarometerVisibility
8:00 PM
Sun, May 24
51 °FCool.8 mph67%30.12 "Hg17 mi
7:00 PM54 °FCool.8 mph63%30.11 "Hg15 mi
5:00 PM58 °FCool.9 mph61%30.08 "Hg19 mi
4:00 PM59 °FCool.7 mph60%30.08 "Hg19 mi
3:00 PM57 °FCool.9 mph66%30.09 "Hg16 mi
2:00 PM57 °FCool.7 mph70%30.09 "Hg17 mi
1:00 PM55 °FCool.7 mph81%30.10 "Hg16 mi
12:00 PM53 °FCool.7 mph89%30.10 "Hg7 mi
11:00 AM56 °FCool.8 mph84%30.09 "Hg22 mi
10:00 AM55 °FCool.12 mph88%30.08 "Hg19 mi
9:00 AM54 °FCool.15 mph91%30.07 "Hg14 mi
8:00 AM51 °FCool.6 mph97%30.08 "Hg4 mi
7:00 AM50 °FCool.7 mph97%30.08 "Hg1 mi
6:00 AM50 °FCool.12 mph96%30.09 "Hg4 mi
5:00 AM49 °FCool.8 mph94%30.10 "Hg9 mi
3:00 AM48 °FCool.15 mph83%30.13 "Hg14 mi
2:00 AM47 °FCool.10 mph79%30.16 "Hg17 mi
1:00 AM46 °FCool.5 mph81%30.18 "Hg16 mi
12:00 AM47 °FCool.7 mph85%30.19 "Hg14 mi
11:00 PM
Sat, May 23
49 °FCool.3 mph79%30.20 "Hg14 mi
9:00 PM54 °FCool.6 mph69%30.20 "Hg16 mi
Weather by CustomWeather, © 2015

See weather overviewHow to use our weather pages